This demonstration page uses our WeatherBlox Daily Observations layout. Learn more.

Left ArrowRight Arrow

41.55636, -103.73856

Hourly Observations for March 27, 2017

Temp ( °F °C ) Dew Point ( °F °C ) Humidity (%) Winds ( mph kmh ) Pressure ( in mb ) Visibility ( mi km ) Precip ( " mm )
12:53 am 00:53 Clear 30 -1.1 26 -3.3 85 85 NNW 6 9 29.95 1014 10 16 0.00 0.00
1:53 am 01:53 Clear 28 -2.2 25 -3.9 88 88 NNE 3 6 29.95 1014 10 16 0.00 0.00
2:53 am 02:53 Clear 29 -1.7 26 -3.3 89 89 Calm 29.94 1014 10 16 0.00 0.00
3:53 am 03:53 Clear 27 -2.8 24 -4.4 89 89 Calm 29.93 1014 10 16 0.00 0.00
4:19 am 04:19 Partly Cloudy with Mist and Fog 27 -2.8 24 -4.4 89 89 E 3 6 30.09 1019 3 4 0.00 0.00
4:22 am 04:22 Mostly Cloudy with Mist and Fog 27 -3 25 -4 93 93 E 3 6 30.09 1019 1 1 0.00 0.00
4:32 am 04:32 Mostly Cloudy with Freezing Fog 27 -3 25 -4 93 93 E 5 7 30.09 1019 0 0 0.00 0.00
4:44 am 04:44 Mostly Cloudy with Freezing Fog 27 -3 25 -4 93 93 Calm 30.09 1019 1 1 0.00 0.00
4:53 am 04:53 Mostly Cloudy with Freezing Fog 27 -2.8 24 -4.4 89 89 Calm 29.92 1013 0 0 0.00 0.00
5:03 am 05:03 Mostly Cloudy with Mist and Fog 27 -3 25 -4 93 93 N 6 9 30.09 1019 1 2 0.00 0.00
5:13 am 05:13 Cloudy with Mist and Fog 26 -3.3 24 -4.4 92 92 NNE 6 9 30.09 1019 3 5 0.00 0.00
5:31 am 05:31 Partly Cloudy 27 -2.8 24 -4.4 89 89 Calm 30.09 1019 10 16 0.00 0.00
5:53 am 05:53 Mostly Clear 25 -3.9 22 -5.6 88 88 Calm 29.94 1014 10 16 0.00 0.00
6:07 am 06:07 Mostly Cloudy 25 -3.9 22 -5.6 88 88 NNE 3 6 30.09 1019 10 16 0.00 0.00
6:37 am 06:37 Cloudy with Mist and Fog 27 -2.8 23 -5 85 85 Calm 30.09 1019 2 3 0.00 0.00
6:53 am 06:53 Mostly Cloudy with Freezing Fog 26 -3.3 24 -4.4 92 92 E 5 7 29.94 1014 1 1 0.00 0.00
7:00 am 07:00 Mostly Cloudy with Freezing Fog 27 -3 25 -4 93 93 E 5 7 30.09 1019 0 0 0.00 0.00
7:12 am 07:12 Mostly Cloudy with Mist and Fog 28 -2 27 -3 93 93 E 5 7 30.06 1018 1 2 0.00 0.00
7:15 am 07:15 Mostly Cloudy with Mist and Fog 28 -2.2 26 -3.3 92 92 E 5 7 30.06 1018 3 5 0.00 0.00
7:26 am 07:26 Mostly Sunny 30 -1 28 -2 93 93 E 5 7 30.06 1018 9 14 0.00 0.00
7:53 am 07:53 Sunny 32 0 30 -1.1 92 92 E 5 7 29.94 1014 9 14 0.00 0.00
8:53 am 08:53 Sunny 39 3.9 34 1.1 82 82 SE 6 9 29.94 1014 10 16 0.00 0.00
9:53 am 09:53 Sunny 49 9.4 35 1.7 59 59 Calm 29.91 1013 10 16 0.00 0.00
10:53 am 10:53 Sunny 57 13.9 34 1.1 42 42 SSW 8 13 29.88 1012 10 16 0.00 0.00
11:53 am 11:53 Sunny 62 16.7 30 -1.1 30 30 SW 10 17 29.84 1010 10 16 0.00 0.00
12:53 pm 12:53 Mostly Cloudy 63 17.2 26 -3.3 25 25 WSW 12 19 29.82 1010 10 16 0.00 0.00
1:53 pm 13:53 Sunny 66 18.9 24 -4.4 20 20 SW 12 19 29.80 1009 10 16 0.00 0.00
2:53 pm 14:53 Mostly Sunny 64 17.8 23 -5 21 21 W 5 7 29.78 1008 10 16 0.00 0.00
3:53 pm 15:53 Cloudy 64 17.8 27 -2.8 25 25 SSE 7 11 29.77 1008 10 16 0.00 0.00
4:53 pm 16:53 Cloudy 63 17.2 29 -1.7 28 28 S 9 15 29.77 1008 10 16 0.00 0.00
5:53 pm 17:53 Cloudy 62 16.7 31 -0.6 31 31 SE 6 9 29.78 1008 10 16 0.00 0.03
6:53 pm 18:53 Cloudy 59 15 32 0 36 36 E 3 6 29.80 1009 10 16 0.00 0.00
7:53 pm 19:53 Cloudy with Light Rain 59 15 33 0.6 38 38 VRB 6 9 29.80 1009 10 16 0.00 0.03
8:53 pm 20:53 Cloudy 58 14.4 34 1.1 41 41 E 10 17 29.80 1009 10 16 0.00 0.03
9:53 pm 21:53 Cloudy 55 12.8 37 2.8 51 51 NE 7 11 29.80 1009 10 16 0.00 0.03
10:53 pm 22:53 Cloudy with Light Rain 51 10.6 41 5 69 69 NNW 10 17 29.81 1009 10 16 0.00 0.03
11:53 pm 23:53 Cloudy with Light Rain 49 9.4 44 6.7 83 83 NNE 13 20 29.80 1009 10 16 0.01 0.25

Powered by AerisWeather